Location: La Tine
(46.4708°N, 7.0525°E)
Time: 01:06:41
(UTC+00:00)

Cosmos 1833 Rocket - Pass Details

Date: 26 January 2021
Orbit: 833 x 839 km, 71.0° (Epoch: 03 March)

Event Time Altitude Azimuth Distance (km) Brightness Sun altitude
Rises 19:35:28 0° 322° (NW) 3,391 6.4 -32.3°
Reaches altitude 10° 19:38:20 10° 309° (NW) 2,452 5.7 -32.8°
Maximum altitude 19:42:42 24° 258° (WSW) 1,682 4.8 -33.5°
Drops below altitude 10° 19:47:02 10° 207° (SSW) 2,442 5.2 -34.3°
Enters shadow 19:48:47 - 198° (SSW) 2,995 5.6 -34.6°
